Temperature
8 8 8 8 7 7 7 7 6 6 6 6 6 5 5 5 4 4 3 3 2 2 2 1 1 0 -1 -1 -2 -3 -4 -4 -5 -4 -4 -4 -3 -3 -3 -3 -3 -3 -3
7 7 7 7 6 6 6 6 5 5 5 5 5 4 4 4 4 3 3 2 2 2 2 1 1 -0 -1 -1 -2 -3 -4 -4 -5 -5 -5 -5 -4 -4 -4 -4 -4 -4 -4
6 6 6 6 6 5 5 5 5 4 4 4 4 3 3 3 3 2 2 2 1 1 1 1 0 -0 -1 -1 -2 -3 -4 -5 -5 -6 -6 -5 -5 -5 -5 -5 -5 -5 -5
6 5 5 5 5 5 4 4 4 3 3 3 3 3 2 2 2 2 1 1 1 0 0 -0 -0 -1 -1 -1 -2 -3 -4 -5 -5 -6 -6 -6 -6 -6 -6 -6 -5 -5 -5
5 5 4 4 4 4 3 3 3 3 2 2 2 2 2 1 1 1 0 0 -0 -0 -1 -1 -1 -1 -2 -3 -3 -4 -4 -5 -6 -6 -7 -7 -7 -6 -6 -6 -6 -6 -6
4 4 4 3 3 3 2 2 2 2 1 1 1 1 1 1 1 0 -0 -1 -1 -1 -1 -1 -2 -2 -3 -4 -4 -5 -5 -6 -6 -6 -7 -7 -7 -6 -6 -7 -7 -7 -7
3 3 3 2 2 2 1 1 1 1 0 0 0 0 0 0 -0 -1 -1 -1 -2 -2 -2 -2 -2 -3 -3 -4 -4 -4 -5 -5 -6 -6 -6 -6 -6 -6 -6 -7 -7 -7 -7
2 2 1 1 1 1 0 0 -0 -0 -0 -0 -0 -1 -1 -1 -1 -1 -2 -2 -2 -2 -2 -3 -3 -3 -4 -4 -4 -5 -5 -5 -5 -5 -6 -6 -6 -6 -6 -7 -7 -7 -7
1 1 0 -0 -0 -0 -1 -1 -1 -1 -1 -1 -1 -1 -1 -1 -1 -2 -2 -3 -3 -3 -3 -3 -3 -4 -4 -5 -5 -5 -6 -5 -6 -6 -6 -6 -6 -6 -7 -7 -7 -8 -8
0 0 -0 -1 -1 -1 -1 -1 -1 -2 -2 -2 -2 -2 -2 -2 -2 -2 -3 -3 -3 -3 -3 -4 -4 -4 -4 -5 -5 -6 -6 -6 -6 -6 -6 -6 -6 -6 -7 -7 -7 -8 -8
-0 -0 -1 -1 -1 -2 -2 -2 -2 -2 -2 -2 -2 -2 -2 -2 -3 -3 -3 -4 -4 -4 -4 -4 -4 -5 -5 -5 -6 -6 -6 -6 -6 -6 -7 -7 -7 -7 -7 -7 -7 -8 -8
-1 -1 -1 -1 -2 -2 -2 -2 -2 -3 -3 -3 -3 -3 -3 -3 -3 -4 -4 -4 -4 -4 -5 -5 -5 -5 -5 -5 -6 -6 -6 -6 -6 -7 -7 -7 -7 -7 -7 -7 -7 -8 -8
-2 -2 -2 -2 -2 -2 -2 -3 -3 -3 -3 -3 -3 -3 -3 -3 -4 -4 -4 -4 -4 -5 -5 -5 -5 -5 -6 -6 -6 -6 -6 -6 -6 -7 -7 -7 -7 -7 -7 -8 -8 -8 -8
-2 -2 -2 -2 -3 -3 -3 -3 -3 -3 -4 -4 -4 -4 -4 -4 -4 -4 -4 -4 -5 -5 -5 -5 -5 -6 -6 -6 -6 -6 -6 -6 -6 -7 -7 -7 -7 -7 -8 -8 -8 -9 -9
-3 -3 -3 -3 -3 -3 -3 -3 -4 -4 -4 -4 -4 -4 -4 -4 -4 -5 -5 -5 -5 -5 -5 -5 -6 -6 -6 -6 -6 -6 -6 -7 -7 -7 -7 -7 -8 -8 -8 -8 -9 -9 -10
-4 -4 -4 -4 -4 -4 -4 -4 -4 -4 -4 -4 -4 -5 -5 -5 -5 -5 -5 -5 -5 -5 -5 -6 -6 -6 -6 -6 -6 -7 -7 -7 -7 -7 -7 -8 -8 -8 -9 -9 -9 -10 -10
-4 -4 -4 -4 -4 -4 -4 -5 -5 -4 -5 -5 -5 -5 -5 -5 -5 -5 -5 -5 -6 -6 -6 -6 -6 -6 -6 -6 -7 -7 -7 -7 -7 -8 -8 -8 -8 -9 -9 -10 -10 -10 -10
-4 -4 -4 -4 -4 -5 -5 -5 -5 -5 -5 -5 -5 -5 -5 -5 -6 -6 -6 -6 -6 -6 -6 -6 -6 -6 -7 -7 -7 -7 -7 -7 -8 -8 -8 -8 -9 -9 -10 -10 -10 -11 -11
-5 -5 -5 -5 -5 -5 -5 -6 -6 -6 -6 -5 -5 -5 -5 -6 -6 -6 -6 -6 -6 -6 -7 -7 -7 -7 -7 -7 -7 -7 -8 -8 -8 -8 -8 -9 -9 -9 -10 -10 -11 -11 -11
-5 -5 -5 -5 -5 -5 -6 -6 -6 -6 -6 -6 -6 -6 -6 -6 -6 -6 -6 -6 -7 -7 -7 -7 -7 -7 -7 -7 -7 -8 -8 -8 -8 -8 -9 -9 -9 -10 -10 -10 -11 -11 -11
-5 -5 -5 -5 -6 -6 -6 -6 -6 -6 -6 -6 -6 -6 -6 -7 -7 -7 -7 -7 -7 -7 -7 -7 -7 -7 -7 -7 -8 -8 -8 -8 -8 -9 -9 -9 -9 -10 -10 -11 -11 -11 -11
-5 -5 -6 -6 -6 -6 -6 -6 -6 -6 -6 -6 -6 -6 -7 -7 -7 -7 -7 -7 -7 -8 -8 -8 -7 -7 -7 -8 -8 -8 -8 -8 -9 -9 -9 -9 -10 -10 -10 -11 -11 -11 -11
-6 -6 -6 -6 -6 -6 -6 -6 -6 -6 -6 -6 -6 -7 -7 -7 -7 -8 -8 -8 -8 -8 -8 -8 -8 -8 -8 -8 -8 -8 -8 -8 -9 -9 -9 -10 -10 -10 -10 -11 -11 -11 -11
-6 -6 -6 -6 -6 -7 -7 -6 -6 -6 -7 -7 -7 -7 -7 -8 -8 -8 -8 -8 -8 -8 -8 -8 -8 -8 -8 -8 -8 -8 -8 -9 -9 -9 -9 -10 -10 -10 -10 -11 -11 -11 -11
-6 -6 -6 -7 -7 -7 -7 -7 -7 -7 -7 -7 -7 -8 -8 -8 -8 -8 -8 -8 -8 -8 -8 -8 -8 -8 -8 -8 -8 -8 -9 -9 -9 -9 -9 -10 -10 -10 -10 -10 -11 -11 -11
-6 -7 -7 -7 -7 -7 -7 -7 -7 -7 -7 -7 -8 -8 -8 -8 -8 -8 -8 -8 -8 -8 -8 -8 -8 -8 -8 -8 -9 -9 -9 -9 -9 -9 -10 -10 -10 -10 -10 -10 -11 -11 -11
Wind_Speed
8 8 9 9 10 10 10 12 13 13 13 14 15 15 15 16 17 17 19 18 21 21 19 20 22 18 16 14 13 13 14 14 19 11 7 8 10 11 11 14 18 18 19
8 8 9 9 9 9 11 12 12 13 12 13 13 13 14 15 15 17 19 19 20 21 21 20 21 17 19 15 14 15 15 15 16 18 9 8 11 11 10 10 11 16 16
9 9 9 10 10 11 11 12 11 12 12 12 12 13 14 14 14 16 18 19 20 21 20 21 21 19 19 16 16 16 15 15 15 16 14 10 9 8 9 10 11 9 14
9 9 10 11 11 12 12 12 12 11 12 12 12 13 14 14 14 14 15 17 18 18 18 19 19 19 20 18 17 18 15 15 14 14 14 10 10 7 8 10 11 10 12
10 10 11 12 12 12 12 12 12 11 12 12 12 13 13 12 12 13 13 15 16 17 16 17 18 22 26 21 17 14 14 14 14 14 14 12 11 8 9 9 12 10 10
11 12 13 13 12 12 13 12 12 12 12 12 13 13 13 12 20 24 18 13 13 14 15 14 16 21 26 31 32 29 23 18 16 15 14 14 13 13 10 10 10 10 10
12 13 13 13 13 13 13 13 13 13 12 12 13 13 14 15 23 25 25 15 11 12 13 12 13 14 21 16 23 30 29 32 29 19 17 17 14 13 12 13 13 12 13
13 13 13 13 14 14 13 13 14 12 12 12 13 13 13 15 23 24 24 15 11 11 12 13 13 13 14 15 14 15 16 17 20 19 16 16 15 12 13 14 14 13 11
14 14 14 14 16 15 14 14 14 13 12 12 12 13 13 15 21 23 23 9 9 10 11 12 13 13 21 24 16 15 15 15 22 26 24 22 25 25 19 12 12 11 12
15 15 15 14 15 16 16 15 13 12 13 13 13 12 13 13 19 22 21 8 8 8 8 10 17 17 20 23 15 13 15 13 12 13 16 19 17 19 25 15 11 11 8
16 16 15 15 15 15 15 13 13 13 13 13 14 12 11 14 17 20 20 9 7 8 7 7 9 19 21 22 20 14 18 14 10 12 11 10 10 9 10 11 11 10 10
16 16 16 15 14 14 14 14 13 13 14 13 13 12 9 10 14 16 19 17 14 8 8 7 9 18 20 21 18 18 22 19 9 10 11 11 10 10 9 10 11 11 11
16 16 16 15 14 13 14 15 14 12 12 12 11 11 10 7 10 17 19 19 18 10 7 12 14 17 17 14 17 19 16 11 9 10 10 10 9 8 7 6 7 8 9
17 17 15 15 15 14 12 11 12 12 12 12 12 12 10 8 8 8 8 9 12 10 7 10 13 14 12 12 11 10 8 7 8 9 8 7 6 7 7 7 7 7 7
17 16 15 14 15 14 12 11 12 12 14 15 12 11 11 11 12 16 11 7 6 7 6 4 4 4 6 6 6 6 6 6 7 6 7 6 7 7 7 7 6 6 7
16 15 14 13 13 12 13 14 15 17 22 22 20 17 13 17 21 19 17 16 15 13 8 4 5 6 7 7 7 7 7 7 7 7 7 7 8 8 7 6 6 7 9
16 16 14 13 13 13 12 13 14 15 17 18 19 19 18 19 19 17 15 14 14 13 7 5 6 6 7 6 6 7 7 7 7 7 7 8 7 7 7 7 8 8 9
16 17 16 13 12 12 12 12 12 13 13 11 13 16 17 17 16 15 14 11 7 6 4 5 5 6 6 6 7 7 6 6 6 7 7 7 8 7 8 8 8 9 9
15 13 13 12 12 12 11 11 11 12 12 12 10 11 14 14 14 14 12 6 5 5 4 5 5 5 6 6 6 6 7 7 7 7 7 8 8 8 8 8 9 13 12
13 20 18 13 12 11 11 11 11 11 11 10 10 9 8 8 6 7 6 4 4 5 5 5 5 5 6 6 6 6 6 7 7 7 7 7 7 8 9 10 9 9 9
13 14 19 15 11 11 11 11 11 10 10 10 9 10 14 8 7 7 6 5 5 5 4 4 4 5 5 5 5 6 7 7 7 7 7 7 7 7 8 8 9 9 9
12 12 11 11 11 11 11 10 10 10 10 11 9 10 14 8 6 6 6 5 4 4 4 4 4 4 5 5 6 6 7 7 7 7 7 7 7 8 8 8 9 9 9
12 12 11 11 10 14 13 10 10 10 10 10 9 8 7 6 6 6 5 4 4 4 3 3 4 4 4 4 5 6 7 7 7 7 7 8 8 8 8 9 10 10 10
11 11 11 11 11 10 10 10 10 10 10 9 8 8 7 6 6 6 5 4 4 3 3 3 4 5 6 5 4 5 6 6 6 7 9 9 8 8 8 9 10 11 11
10 10 10 10 11 10 10 10 10 9 9 8 8 7 7 6 5 5 4 4 4 4 4 4 3 4 6 6 6 6 9 11 10 8 7 8 9 10 10 10 10 10 11
10 11 10 10 10 10 10 10 9 9 8 8 7 6 6 6 5 4 4 4 4 4 4 4 4 5 6 5 7 9 11 12 12 13 8 6 8 8 9 9 10 10 11
Wind_Direction
295 286 280 276 271 267 265 266 267 267 265 262 259 256 251 247 242 239 239 237 236 237 234 233 234 229 230 227 224 224 226 227 246 247 213 209 207 222 234 230 230 237 245
297 295 290 286 285 280 274 272 271 270 268 265 264 261 258 254 248 243 243 240 238 238 236 234 234 230 228 226 224 225 226 224 234 248 232 217 219 221 224 227 234 238 238
303 301 298 295 291 285 281 281 278 275 274 271 267 265 263 259 254 248 246 244 240 239 236 233 233 227 229 226 223 225 226 227 228 240 242 229 227 222 222 234 238 238 243
304 302 298 294 290 287 285 285 283 279 278 276 271 268 266 264 259 254 250 248 245 242 238 234 232 227 227 224 225 225 224 225 226 232 239 234 230 216 215 233 243 237 242
303 300 296 294 292 288 287 286 283 280 278 276 275 273 269 267 263 258 253 250 248 246 242 237 233 231 230 229 228 223 220 224 225 230 236 234 230 220 223 222 237 242 242
301 298 298 298 296 293 291 288 284 281 279 278 276 276 274 273 277 278 273 255 246 243 243 239 236 239 240 239 237 232 222 220 222 225 229 231 229 224 222 223 230 239 249
300 299 299 298 296 293 291 290 287 285 283 281 278 276 274 274 281 284 281 274 252 242 238 236 236 235 237 234 240 242 238 231 225 220 227 228 226 220 218 225 229 233 241
302 301 300 299 297 295 291 289 288 286 284 283 282 280 278 279 286 287 286 277 260 245 237 232 231 231 228 227 226 231 235 238 236 231 226 226 225 220 216 223 230 237 245
305 303 302 301 300 298 295 293 291 289 287 284 283 282 280 283 288 290 288 273 261 251 239 231 230 228 234 236 230 228 232 234 241 242 238 232 230 230 223 222 225 233 246
306 303 301 300 298 297 296 294 293 290 288 288 286 281 278 279 286 290 289 275 264 258 245 235 240 236 237 239 231 224 229 229 225 236 244 248 241 238 239 229 221 231 244
304 302 301 300 297 296 296 295 294 293 291 289 287 283 277 278 285 289 289 279 260 257 251 240 236 245 243 241 237 227 232 226 215 221 227 232 235 234 233 228 217 221 235
304 303 302 301 299 300 297 298 295 293 293 292 290 288 280 278 283 286 287 284 278 259 252 242 236 244 247 246 243 235 235 235 220 217 223 226 227 228 226 221 219 220 226
305 304 303 302 299 297 297 299 299 296 295 294 292 292 289 278 278 286 288 288 283 272 253 249 246 246 246 248 247 242 237 230 220 217 220 223 220 218 211 214 223 227 233
306 305 304 304 302 300 297 296 296 296 295 294 294 293 292 287 278 274 271 277 277 276 272 262 258 251 241 236 243 247 233 224 220 220 219 217 208 207 214 216 224 225 239
305 305 305 303 303 304 300 296 295 288 288 294 293 291 294 294 288 288 283 266 253 250 249 237 235 236 229 221 221 225 223 224 228 214 212 210 210 214 220 211 215 220 235
309 309 308 306 305 304 305 304 297 296 300 301 299 296 292 290 295 296 294 289 283 272 259 237 236 231 228 224 221 219 217 217 218 215 214 214 215 216 221 218 219 225 240
305 307 307 305 305 306 306 307 308 308 305 304 303 301 299 300 300 299 296 291 286 277 259 238 232 228 224 220 220 219 219 216 210 214 219 216 214 216 221 226 227 233 242
305 306 307 304 304 303 303 303 304 306 309 308 306 307 307 306 305 304 300 298 286 271 247 239 235 229 224 222 221 222 220 214 211 215 217 215 213 217 224 229 231 235 243
307 306 306 305 304 303 303 302 301 300 300 302 304 307 309 310 309 306 302 284 271 261 248 240 235 231 226 223 222 220 217 216 213 213 216 217 215 217 228 232 235 245 249
306 307 312 309 307 306 305 303 303 302 301 302 304 305 308 306 300 300 294 275 263 256 246 242 237 232 227 222 220 217 217 218 215 217 220 220 219 221 230 234 237 243 246
306 307 310 309 304 304 303 302 302 302 303 303 301 302 306 304 297 293 288 278 265 256 248 244 243 238 229 220 216 217 218 222 220 219 221 222 221 226 231 234 239 243 248
305 303 304 304 304 304 304 302 302 303 303 302 303 304 309 305 295 292 287 280 269 259 249 246 247 239 227 220 218 219 222 226 225 223 223 224 225 229 232 237 241 245 248
303 303 305 305 304 307 308 304 304 304 303 302 303 303 303 300 295 291 287 279 274 269 260 253 252 247 238 230 224 221 226 229 227 220 222 227 229 231 234 238 242 247 250
307 306 307 307 306 305 304 305 306 306 306 305 304 303 302 301 297 293 290 284 278 275 269 264 256 249 244 245 241 236 235 235 227 225 224 229 232 236 238 242 245 247 251
310 307 306 306 306 306 307 307 307 308 308 308 307 306 304 302 298 297 294 290 285 282 279 275 267 256 248 248 251 252 252 252 252 245 233 232 234 236 240 244 247 251 253
310 308 307 306 306 306 307 307 309 310 309 309 307 306 305 303 299 298 297 295 294 292 288 284 272 267 263 261 259 261 264 265 264 262 251 241 240 244 245 249 251 253 256
Height
1466 1462 1458 1454 1450 1446 1441 1437 1433 1428 1424 1420 1416 1412 1408 1405 1403 1400 1397 1395 1394 1392 1392 1391 1390 1392 1393 1395 1397 1399 1400 1401 1397 1396 1402 1405 1408 1411 1414 1415 1415 1416 1417
1460 1456 1451 1447 1443 1438 1433 1428 1424 1419 1414 1410 1406 1402 1398 1394 1392 1388 1385 1383 1381 1379 1378 1378 1377 1380 1380 1382 1384 1385 1387 1388 1388 1386 1389 1393 1396 1399 1402 1404 1405 1405 1406
1454 1449 1444 1440 1435 1429 1424 1419 1414 1409 1404 1400 1396 1391 1387 1383 1380 1376 1373 1370 1368 1366 1365 1365 1365 1367 1367 1369 1371 1372 1374 1376 1377 1377 1377 1382 1384 1388 1390 1392 1393 1394 1394
1447 1442 1437 1432 1426 1421 1415 1410 1405 1400 1395 1390 1385 1381 1376 1372 1368 1365 1361 1358 1355 1353 1352 1352 1352 1353 1354 1356 1358 1359 1362 1364 1366 1367 1367 1370 1373 1376 1378 1379 1381 1382 1383
1440 1435 1429 1423 1417 1412 1406 1400 1395 1390 1385 1380 1375 1370 1366 1361 1357 1353 1349 1346 1343 1341 1340 1340 1340 1341 1342 1344 1346 1347 1350 1352 1354 1356 1357 1360 1362 1365 1366 1368 1370 1371 1371
1432 1426 1420 1414 1408 1402 1397 1391 1386 1380 1375 1370 1365 1360 1355 1351 1347 1343 1339 1335 1332 1329 1328 1328 1328 1330 1331 1333 1335 1336 1338 1340 1342 1344 1346 1348 1350 1353 1357 1359 1360 1361 1360
1424 1418 1411 1405 1399 1393 1387 1382 1376 1371 1365 1360 1355 1349 1344 1340 1337 1333 1329 1325 1321 1319 1318 1317 1317 1318 1320 1321 1323 1326 1328 1329 1331 1332 1334 1335 1340 1343 1347 1349 1350 1350 1350
1416 1409 1403 1397 1390 1384 1378 1373 1367 1362 1356 1350 1345 1340 1334 1330 1327 1323 1319 1315 1312 1309 1308 1307 1307 1307 1309 1311 1312 1313 1315 1318 1322 1324 1323 1326 1330 1334 1336 1339 1340 1341 1341
1408 1401 1395 1389 1382 1376 1370 1364 1358 1353 1346 1341 1336 1330 1325 1321 1318 1314 1310 1306 1302 1300 1299 1298 1298 1298 1299 1302 1302 1302 1304 1306 1311 1314 1316 1318 1321 1324 1327 1329 1330 1331 1330
1401 1394 1388 1382 1375 1368 1361 1355 1349 1344 1337 1332 1326 1322 1317 1312 1309 1305 1302 1298 1294 1292 1290 1290 1290 1289 1290 1292 1293 1293 1294 1296 1301 1304 1307 1310 1312 1315 1318 1320 1320 1321 1321
1393 1386 1380 1374 1367 1360 1353 1347 1341 1335 1328 1323 1317 1312 1308 1304 1300 1297 1294 1290 1287 1284 1282 1281 1281 1282 1282 1283 1285 1286 1286 1290 1292 1295 1297 1300 1303 1305 1307 1310 1311 1312 1312
1385 1378 1371 1365 1358 1352 1345 1338 1332 1326 1320 1314 1308 1303 1299 1296 1292 1288 1286 1283 1280 1278 1275 1274 1274 1274 1275 1276 1277 1278 1281 1284 1285 1287 1289 1290 1293 1295 1297 1300 1301 1302 1302
1377 1370 1363 1356 1350 1344 1337 1330 1324 1318 1312 1306 1301 1296 1291 1288 1284 1281 1278 1276 1273 1271 1269 1268 1268 1267 1268 1269 1270 1272 1275 1276 1278 1279 1280 1282 1284 1287 1289 1291 1292 1292 1293
1369 1361 1354 1347 1341 1335 1329 1323 1317 1311 1305 1299 1294 1289 1284 1280 1277 1274 1271 1268 1266 1264 1263 1262 1262 1262 1262 1263 1264 1266 1267 1269 1270 1272 1273 1275 1277 1279 1280 1281 1282 1283 1282
1361 1354 1347 1340 1333 1327 1321 1316 1310 1304 1300 1294 1288 1284 1279 1273 1270 1268 1265 1262 1260 1258 1257 1256 1255 1256 1256 1257 1258 1259 1261 1263 1264 1265 1267 1268 1269 1270 1271 1273 1273 1274 1273
1353 1346 1339 1333 1326 1320 1313 1307 1302 1297 1292 1287 1282 1278 1272 1269 1264 1261 1259 1256 1254 1253 1252 1250 1249 1250 1250 1251 1252 1253 1254 1256 1257 1259 1260 1261 1261 1262 1263 1264 1265 1265 1264
1347 1340 1333 1326 1320 1313 1307 1300 1293 1288 1284 1280 1275 1271 1267 1262 1259 1255 1252 1250 1248 1247 1246 1244 1244 1244 1244 1245 1246 1247 1248 1249 1250 1251 1252 1253 1254 1254 1255 1256 1256 1256 1255
1341 1334 1327 1320 1314 1307 1301 1295 1289 1283 1276 1271 1268 1265 1261 1256 1253 1249 1247 1244 1242 1241 1240 1239 1239 1238 1239 1239 1240 1241 1241 1243 1243 1244 1245 1246 1246 1247 1247 1247 1247 1247 1246
1333 1327 1320 1314 1307 1301 1295 1290 1284 1278 1273 1267 1262 1258 1255 1251 1247 1244 1241 1239 1237 1235 1234 1234 1233 1233 1233 1234 1234 1235 1235 1236 1236 1237 1238 1238 1239 1239 1239 1239 1239 1239 1238
1326 1320 1314 1308 1301 1295 1289 1284 1279 1273 1268 1263 1258 1254 1250 1246 1242 1239 1236 1234 1232 1231 1229 1229 1228 1228 1228 1228 1229 1229 1229 1229 1230 1230 1231 1231 1231 1231 1231 1231 1231 1230 1229
1320 1313 1307 1302 1295 1290 1284 1279 1274 1269 1264 1259 1254 1250 1246 1242 1238 1235 1232 1230 1228 1226 1225 1224 1224 1224 1223 1223 1223 1223 1223 1223 1223 1224 1224 1224 1224 1224 1224 1223 1223 1222 1221
1313 1307 1301 1296 1290 1284 1279 1274 1269 1264 1259 1255 1249 1245 1241 1238 1234 1231 1228 1226 1224 1222 1222 1221 1220 1219 1219 1219 1218 1218 1217 1217 1217 1217 1217 1217 1217 1217 1216 1216 1215 1214 1213
1307 1301 1296 1290 1285 1279 1274 1269 1265 1260 1255 1250 1246 1241 1237 1233 1230 1227 1224 1222 1220 1219 1218 1217 1216 1215 1215 1214 1214 1213 1212 1211 1211 1211 1211 1210 1210 1209 1209 1208 1207 1206 1205
1302 1296 1290 1285 1279 1274 1269 1265 1260 1256 1251 1246 1242 1237 1233 1230 1226 1224 1221 1219 1217 1216 1215 1214 1213 1212 1211 1210 1209 1208 1207 1206 1205 1205 1204 1204 1203 1202 1201 1200 1199 1198 1196
1297 1291 1285 1280 1275 1270 1265 1260 1256 1252 1247 1243 1238 1234 1230 1227 1224 1221 1219 1216 1215 1213 1212 1211 1209 1208 1207 1205 1204 1203 1202 1201 1200 1199 1198 1197 1196 1195 1194 1192 1191 1189 1188
1291 1286 1280 1276 1271 1266 1261 1257 1252 1248 1243 1239 1235 1231 1228 1224 1221 1219 1216 1214 1212 1210 1209 1207 1206 1204 1203 1201 1200 1198 1197 1196 1195 1194 1193 1191 1190 1188 1186 1185 1183 1182 1180